Location: Churchill Northern Studies Centre
(58.7378°N, 93.8201°W)
Time: 16:24:58
(UTC-06:00)

Envisat - Pass Details

Date: 12 October 2017
Orbit: 764 x 766 km, 98.2° (Epoch: 13 December)

Event Time Altitude Azimuth Distance (km) Brightness Sun altitude
Exits shadow 22:14:13 10° 226° (SW) 2,276 5.5 -30.0°
Maximum altitude 22:17:54 21° 273° (W) 1,690 5.2 -30.3°
Drops below altitude 10° 22:21:42 10° 322° (NW) 2,320 6.4 -30.7°
Sets 22:24:36 0° 338° (NNW) 3,252 7.2 -31.0°
